Location: New Plymouth
(39.0670°S, 174.0830°E)
Time: 04:31:15
(UTC+12:00)

ISS - Visible Passes

Search period start: 17 May 2021 00:00
Search period end: 27 May 2021 00:00
Orbit: 417 x 422 km, 51.6° (Epoch: 15 May)

Date Brightness Start Highest point End Pass type
(mag) Time Alt. Az. Time Alt. Az. Time Alt. Az.
19 May -0.4 06:27:00 10° NNE 06:28:54 14° NE 06:30:48 10° E visible
21 May -2.4 06:27:13 10° NNW 06:30:28 43° NE 06:33:45 10° ESE visible
22 May -1.4 05:40:16 10° N 05:43:06 24° NE 05:45:58 10° ESE visible
23 May -0.7 04:55:40 14° NE 04:55:48 14° NE 04:57:43 10° E visible
23 May -3.7 06:28:52 10° WNW 06:32:15 60° SW 06:35:40 10° SE visible
24 May -3.7 05:44:13 59° NNW 05:44:45 79° NE 05:48:13 10° SE visible
25 May -1.0 04:59:26 19° ESE 04:59:26 19° ESE 05:00:38 10° ESE visible
25 May -2.5 06:32:26 17° WSW 06:34:16 25° SSW 06:37:13 10° SSE visible
26 May -2.6 05:47:24 32° S 05:47:24 32° S 05:49:53 10° SE visible
